Београд, метеограме

Београд: време по сату
Четвтак, 22 Аугуста
Време Падавине Температура Осећа се Притисак Влажност Ветар
17:00 0.01 мм +30.6° +31° 756 мм.ж.с 41% 1 м/с, С
18:00 0.01 мм +28.7° +29.2° 757 мм.ж.с 45% 1 м/с, С
19:00 0.01 мм +26.8° +27.4° 757 мм.ж.с 50% 2 м/с, С
20:00 0.01 мм +25.5° +26.5° 757 мм.ж.с 57% 2 м/с, С
21:00 0.01 мм +24.2° +25.4° 757 мм.ж.с 63% 2 м/с, СИ
22:00 0.01 мм +22.9° +24.3° 757 мм.ж.с 70% 2 м/с, СИ
23:00 0 мм +22.1° +23.6° 757 мм.ж.с 73% 1 м/с, СИ
Петак, 23 Аугуста
Време Падавине Температура Осећа се Притисак Влажност Ветар
00:00 0 мм +21.4° +22.9° 757 мм.ж.с 77% 1 м/с, С
01:00 0 мм +20.7° +22.3° 757 мм.ж.с 81% 1 м/с, С
02:00 0 мм +20.3° +21.9° 757 мм.ж.с 82% 1 м/с, С
03:00 0 мм +19.9° +21.5° 757 мм.ж.с 84% 1 м/с, С
04:00 0 мм +19.5° +21.2° 757 мм.ж.с 86% 1 м/с, С
05:00 0 мм +20.9° +22.5° 758 мм.ж.с 78% 1 м/с, С
06:00 0 мм +22.4° +23.7° 758 мм.ж.с 71% 1 м/с, С
07:00 0 мм +23.8° +25° 758 мм.ж.с 64% 1 м/с, С
08:00 0 мм +26.2° +27.1° 758 мм.ж.с 55% 1 м/с, СИ
09:00 0 мм +28.5° +29.2° 758 мм.ж.с 47% 2 м/с, СИ
10:00 0 мм +30.9° +31.1° 758 мм.ж.с 38% 2 м/с, И
11:00 0 мм +32.4° +32.4° 758 мм.ж.с 34% 1 м/с, И
12:00 0 мм +34° +33.6° 757 мм.ж.с 30% 1 м/с, И
13:00 0 мм +35.5° +34.8° 756 мм.ж.с 26% 1 м/с, И
14:00 0 мм +35° +34.3° 756 мм.ж.с 26% 2 м/с, СИ
15:00 0 мм +34.5° +33.7° 756 мм.ж.с 26% 2 м/с, СИ
16:00 0 мм +34° +33.1° 756 мм.ж.с 26% 2 м/с, СИ
17:00 0 мм +32.2° +31.6° 756 мм.ж.с 29% 2 м/с, СИ
18:00 0 мм +30.5° +30° 756 мм.ж.с 32% 2 м/с, СИ
19:00 0 мм +28.8° +28.4° 756 мм.ж.с 36% 3 м/с, СИ
20:00 0.1 мм +27.9° +27.7° 756 мм.ж.с 38% 2 м/с, СИ
21:00 0.1 мм +27° +27° 756 мм.ж.с 41% 2 м/с, СИ
22:00 0.1 мм +26.2° +26.2° 756 мм.ж.с 43% 2 м/с, И
23:00 0.02 мм +25.6° +25.7° 756 мм.ж.с 45% 2 м/с, И
Субота, 24 Аугуста
Време Падавине Температура Осећа се Притисак Влажност Ветар
00:00 0.02 мм +25° +25.2° 756 мм.ж.с 47% 2 м/с, И
01:00 0.02 мм +24.4° +24.6° 756 мм.ж.с 48% 1 м/с, ЈИ
02:00 0 мм +23.8° +24° 756 мм.ж.с 50% 2 м/с, ЈИ
03:00 0 мм +23.1° +23.3° 756 мм.ж.с 51% 2 м/с, ЈИ
04:00 0 мм +22.5° +22.8° 756 мм.ж.с 53% 2 м/с, ЈИ
05:00 0 мм +23.8° +24° 756 мм.ж.с 50% 2 м/с, ЈИ
06:00 0 мм +25° +25.2° 757 мм.ж.с 47% 3 м/с, ЈИ
07:00 0 мм +26.3° +26.4° 757 мм.ж.с 44% 3 м/с, ЈИ
08:00 0 мм +28.5° +28.4° 757 мм.ж.с 39% 4 м/с, ЈИ
09:00 0 мм +30.6° +30.3° 756 мм.ж.с 34% 4 м/с, ЈИ
10:00 0 мм +32.7° +32.3° 756 мм.ж.с 30% 5 м/с, ЈИ
11:00 0 мм +33.6° +32.9° 756 мм.ж.с 27% 5 м/с, ЈИ
12:00 0 мм +34.5° +33.6° 756 мм.ж.с 25% 5 м/с, И
13:00 0 мм +35.4° +34.2° 755 мм.ж.с 22% 5 м/с, И
14:00 0 мм +35.2° +34.1° 755 мм.ж.с 23% 5 м/с, И
15:00 0 мм +35° +33.9° 755 мм.ж.с 23% 5 м/с, И
16:00 0 мм +34.8° +33.8° 755 мм.ж.с 24% 6 м/с, И

Такође

Meteograms hourly weather Мапе времена Преглед времена
Meteograms hourly weather Мапе времена Преглед времена
 
Време у Србији:
О проjекту
© meteoprog.rs 2003-2019.
Meteoprog.ua - погода в Украине 0.0414
sitemap